TUBIN (48900 NORAD) Tracking and Keplerian Element Data

This shows tracking and keplerian element data for the satellite.

Feedback or suggestion? Click here.




ElementValue
Catalog48900
NameTUBIN
Epoch Orbit1683
Epoch Day288.20980389
Epoch Year2021
RAAN55.3492
Inclination97.5241
Eccentricity0.0009308
Argument of Perigee222.4941
Mean Anonmoly257.8693
Mean Motion15.12364172
Decay Rate1.712E-05
L11 48900U 21059X 21288.20980389 .00001712 00000-0 10238-3 0 9996
L22 48900 97.5241 55.3492 0009308 222.4941 257.8693 15.12364172 16833

Live tracking and technical data element details for TUBIN (NORAD 48900). TUBIN can be tracked NOW for your location showing map with azimuth and elevation plus other details from your city location.

Track the satellite on the map from your city or location and see movement details for azimuth, elevation, latitude, longitude, range, height, and movement on the map or in text.







IsCatalogInMostPopularTable: catalog: 48900, numindb: 21
Update: records affected: 1



GetName: 48900 TUBIN

Hit Count: updated at: Tue, 19 Oct 2021 09:18:37 GMT